181  
ASUS42 KMLB 251912  
RWRMLB  
HOURLY WEATHER ROUNDUP AROUND FLORIDA  
NATIONAL WEATHER SERVICE OFFICE MELBOURNE FL  
200 PM EST SAT JAN 25 2020  
 
CITY SKY/WX TMP DP RH WIND PRES REMARKS
 
MELBOURNE FAIR 70 42 36 NW8 30.06F  
FORT PIERCE FAIR 73 49 42 NW9 30.05F  
ORLANDO INTL FAIR 69 37 30 NW10 30.07F  
DAYTONA BEACH SUNNY 67 36 31 W13 30.06F  
VERO BEACH FAIR 70 52 52 NE10 30.06F  

   
..ELSEWHERE ACROSS CENTRAL FLORIDA
 
 
 
CITY SKY/WX TMP DP RH WIND PRES REMARKS
 
PATRICK AFB FAIR 68 44 41 N6 30.06F  
KSC FAIR 66 47 49 NE7 30.06F  
CAPE CANAVERAL FAIR 67 46 47 NE9 30.06F  
TITUSVILLE SUNNY 72 36 26 NW14 30.07F  
ORLANDO EXEC FAIR 68 33 27 NW10 30.08F  
LEESBURG FAIR 69 37 30 NW10 30.08F  
SANFORD FAIR 68 34 28 W10 30.07F  
DELAND FAIR 66 36 32 W8 30.06F  
NEW SMYRNA BCH SUNNY 68 34 28 NW7 30.08F  
ORMOND BEACH SUNNY 66 37 34 W15 30.07F  
WINTER HAVEN FAIR 71 37 28 NW9 30.08F  
KISSIMMEE FAIR 69 37 30 N10G18 30.08F  
OKEECHOBEE FAIR 72 43 35 N6 30.06F  
TAMPA FAIR 69 41 36 N10 30.09F  

   
..NORTHERN FLORIDA
 
 
 
CITY SKY/WX TMP DP RH WIND PRES REMARKS
 
PALM COAST SUNNY 66 34 30 W12 30.07F  
ST AUGUSTINE FAIR 64 38 38 W15 30.06F  
OCALA FAIR 65 37 35 NW9G16 30.08F  
GAINESVILLE FAIR 64 34 32 W14 30.09F  
JACKSONVILLE FAIR 63 38 39 W12G18 30.04F  
TALLAHASSEE FAIR 58 35 42 W14 30.11F  

   
..ALONG THE SOUTHEAST COAST TO THE KEYS
 
 
 
CITY SKY/WX TMP DP RH WIND PRES REMARKS
 
STUART MOSUNNY 72 48 43 NW6 30.07F  
WEST PALM BCH FAIR 76 60 57 NW10 30.05F  
MIAMI FAIR 76 61 59 VRB7 30.05F  
KEY WEST FAIR 73 65 75 N13 30.06F  

   
..MARINE REPORTS
 
 
 
STATION/POSITION TIME TEMP WIND PRES WAVE SWELL
 
AIR SEA DIR/SP/G HT/PER HT/PER  
(UTC) (F) (DEG/KT/KT) (MB) (FT/S) (FT/S)  
ST AUGUSTINE FP 1900 62 59 320/ 5/ 8 1017.8F  
20NM E CAPE CANA 1850 62 74 330/ 17/ 21 1018.8F 6/12 5/12  
TRIDENT PIER 1818 65 66 310/ 6/ 9 1019.3  
SEBASTIAN INLET 1845 62 61 10/ 12 1019.0F  
4NM E PORT CANAV 1900 66 N/A 3/12 2/12  
6NM NE FPR INLET 1900 71 N/A 5/11 3/11  
SETTLEMENT PT GB 1900 71 330/ 14/ 16 1017.2F  

 
 
 
CLICK HERE TO GO TO PREVIOUS BULLETINS.

The Nexlab FL Page Main Text Page